Wind_Speed
11 13 15 17 18 19 20 21 22 24 26 29 30 29 29 29 30 31 32 33 33 33 35 36 36 36 36 35 33 39 39 38 38 39 38 38 37 36 39 39 38 39 31 36 34 34 35
11 13 15 17 19 21 23 25 27 28 29 31 32 34 37 36 35 36 37 37 37 39 39 40 40 40 39 36 39 38 40 41 42 42 42 42 41 42 43 40 43 41 38 37 39 36 37
9 12 15 17 20 22 26 27 29 30 32 32 32 34 35 37 40 41 41 41 41 42 43 43 43 43 41 41 41 40 39 40 41 42 43 44 46 46 46 46 44 42 47 43 40 37 42
10 13 15 17 20 22 25 28 31 33 36 38 37 35 35 35 37 39 42 44 44 45 46 48 49 47 44 42 44 43 42 42 42 42 41 43 45 48 48 49 47 45 48 45 37 42 42
10 12 15 18 21 23 26 31 34 39 41 43 44 42 40 34 35 38 39 41 42 43 46 49 51 53 51 48 46 46 46 46 46 45 44 44 45 48 50 51 49 49 46 47 48 46 49
13 15 17 20 24 29 31 33 36 40 43 46 45 42 42 43 39 36 38 37 38 39 41 45 47 49 51 51 49 50 50 50 50 51 50 47 47 50 51 49 49 48 53 52 52 51 49
15 17 19 23 27 30 34 35 36 40 45 48 48 46 41 41 42 43 40 39 39 40 40 42 44 44 48 48 47 47 47 48 50 52 51 49 52 52 49 48 50 53 55 55 54 53 55
19 22 26 29 30 31 36 39 40 42 46 48 48 46 44 44 44 45 45 44 43 42 37 39 43 45 45 47 48 48 49 50 51 50 50 52 53 52 53 55 53 54 54 52 50 48 56
24 29 32 34 35 37 37 40 40 41 44 46 47 47 47 47 46 47 46 45 45 45 43 40 43 44 45 46 49 50 48 47 48 51 52 55 54 53 49 49 50 48 52 51 52 49 51
27 32 35 36 37 38 40 39 40 43 44 46 45 42 42 47 44 46 47 48 49 51 52 53 53 51 49 51 53 52 53 53 53 51 50 56 51 52 58 58 52 58 50 55 54 52 55
32 34 36 36 38 40 40 40 40 44 47 47 48 45 45 44 43 46 50 53 56 57 59 60 62 64 61 63 62 63 63 65 62 63 65 63 65 64 64 61 58 63 56 56 56 57 56
34 37 40 41 39 41 42 41 43 47 48 51 52 49 47 49 50 52 56 58 58 63 73 68 68 72 73 74 73 76 76 73 70 72 73 70 64 67 65 65 66 65 65 60 58 59 68
41 43 42 40 40 42 43 46 50 50 51 53 54 53 53 55 58 59 60 63 66 70 73 74 76 79 84 84 85 80 75 75 74 72 72 70 73 67 70 67 64 60 60 59 61 64 71
45 43 42 41 42 44 47 52 54 54 55 58 60 59 58 60 65 66 67 71 74 77 81 86 86 88 90 90 88 85 90 87 78 68 69 73 77 71 68 69 64 60 57 58 62 61 60
41 43 43 45 45 48 52 56 57 57 60 66 67 68 70 73 75 76 80 82 86 90 91 94 96 99 99 95 94 93 89 85 74 63 60 62 74 64 63 66 62 62 65 56 51 52 52
42 42 43 46 49 53 54 56 62 64 69 70 68 75 78 80 84 86 89 92 97 100 102 103 104 106 106 102 84 71 71 73 57 55 50 63 68 65 56 58 61 59 54 56 58 61 61
42 43 47 49 52 54 60 63 65 68 70 72 77 80 85 87 89 95 100 103 105 106 105 98 89 78 70 68 66 66 60 60 64 61 54 41 46 59 53 57 56 56 57 54 58 56 57
42 45 49 52 55 58 62 65 70 73 73 78 79 85 92 95 99 103 107 107 104 95 81 72 62 55 47 45 43 44 45 45 43 43 36 39 55 44 46 47 54 54 56 52 51 57 58
44 49 52 56 59 65 69 71 74 76 79 83 87 92 99 103 106 108 102 89 75 66 58 55 50 38 31 36 38 33 31 35 42 39 38 43 53 54 44 31 31 37 38 42 46 45 51
49 53 57 61 65 71 74 77 79 82 86 90 94 99 104 107 105 95 81 65 55 47 45 37 35 33 29 29 23 30 29 29 33 38 49 34 38 35 33 33 41 43 46 49 50 50 35
53 57 61 68 73 78 80 81 84 88 92 95 98 102 104 95 82 65 55 53 48 45 36 27 29 24 26 29 25 29 27 29 28 29 44 47 35 48 44 49 42 40 33 29 38 41 54
58 62 69 73 77 81 83 84 90 93 97 99 101 97 86 68 56 49 47 45 45 41 33 18 22 23 24 25 32 35 37 29 32 29 31 30 35 32 46 50 51 53 49 40 30 27 29
63 67 72 76 80 82 85 88 93 95 99 98 91 80 67 49 48 47 45 44 43 40 17 18 24 26 28 32 37 43 41 31 33 29 27 27 21 21 21 23 29 27 33 39 43 39 37
66 70 74 77 81 84 87 90 93 97 95 86 74 64 50 44 43 44 41 40 41 26 22 20 28 29 29 28 31 29 24 16 20 21 17 21 23 23 24 25 25 25 24 27 32 42 49
69 72 75 79 82 85 88 90 92 90 81 69 61 49 48 44 41 38 36 36 34 29 21 26 29 30 32 26 31 23 13 13 17 11 14 9 11 17 21 15 19 18 23 24 27 29 29
70 73 77 80 84 87 88 90 88 78 68 59 47 50 48 45 41 40 36 33 31 29 22 24 28 32 27 23 21 20 16 15 15 9 12 11 9 11 14 17 20 19 20 19 19 19 25
70 73 77 81 83 85 87 85 75 67 61 51 48 49 48 49 42 39 36 34 30 29 28 28 24 19 21 21 17 14 13 14 11 16 13 11 10 11 13 18 22 23 24 27 29 28 25
71 75 79 80 82 85 84 73 66 61 52 50 47 50 52 48 42 39 36 34 31 31 30 30 26 22 22 20 16 12 14 16 19 19 22 19 20 19 22 25 27 26 29 27 32 31 33
73 76 77 80 83 80 72 65 60 55 51 53 52 52 49 46 42 38 35 31 29 33 31 30 29 27 25 23 20 20 22 23 26 28 26 25 25 26 26 26 26 28 31 33 27 31 27
Wind_Direction
340 335 335 334 329 327 324 321 317 315 313 312 309 305 303 301 301 300 299 298 298 296 295 294 293 291 289 292 295 286 283 279 278 276 276 275 273 270 272 271 273 273 274 272 272 272 276
336 335 335 335 334 333 330 327 323 318 314 309 304 302 301 298 297 295 293 293 294 294 294 293 292 291 291 299 290 289 288 282 277 277 278 278 277 274 272 275 274 277 275 273 273 277 275
328 344 356 356 356 356 351 348 342 340 331 323 315 306 299 296 296 294 290 288 288 289 289 289 288 289 291 296 291 290 288 287 282 278 277 276 275 275 277 275 275 279 277 273 275 280 276
339 350 353 350 349 350 348 348 346 344 342 338 327 317 308 303 298 296 293 289 286 284 285 286 285 284 284 288 290 289 288 287 284 282 280 277 277 276 276 275 277 276 275 279 283 274 271
332 342 343 339 336 337 337 337 337 337 337 337 336 328 316 310 305 298 295 295 290 284 284 284 283 282 281 282 284 283 284 284 283 282 281 279 277 278 276 278 278 278 281 277 271 268 268
320 330 331 329 332 333 332 331 333 333 335 333 332 330 321 316 309 306 302 299 297 294 290 286 284 283 281 281 280 280 282 281 278 277 277 278 277 275 273 277 280 277 274 274 274 275 271
315 321 325 326 327 330 331 331 331 333 334 335 333 330 324 317 314 309 306 303 300 295 294 292 291 288 284 282 282 284 282 277 275 273 274 273 271 274 274 272 270 269 271 273 276 277 273
306 309 313 317 317 320 322 323 326 331 333 335 333 329 324 318 315 314 311 307 302 301 296 295 292 292 289 286 285 283 285 281 277 274 270 268 268 269 268 267 269 267 267 268 268 269 272
304 309 313 316 314 315 314 317 321 328 333 336 333 332 329 324 319 319 316 307 304 300 297 294 288 289 290 288 287 286 285 281 278 275 274 272 272 268 267 269 270 270 269 270 268 265 264
308 311 312 312 312 313 314 316 320 327 331 330 329 329 325 321 319 317 314 309 304 305 303 301 298 296 292 289 288 286 285 283 280 278 275 274 273 273 274 271 271 268 270 269 270 269 268
308 309 311 311 311 311 312 313 321 327 326 326 322 322 322 322 316 313 311 309 306 305 303 304 300 300 296 291 287 286 284 281 277 273 272 273 272 271 270 272 274 274 273 272 273 273 271
305 308 307 309 310 310 312 317 320 322 320 319 317 315 316 316 316 312 311 306 303 302 302 299 297 295 292 293 292 290 289 284 278 276 275 272 271 269 269 268 269 273 273 274 273 272 268
304 306 305 308 307 311 316 318 320 319 316 315 314 314 312 314 310 310 308 304 299 296 293 292 291 289 290 290 290 290 287 285 284 281 278 275 272 271 269 269 270 269 271 270 268 265 269
302 303 305 306 304 311 315 319 316 315 314 313 314 313 311 311 314 311 307 302 296 293 290 289 287 286 288 290 290 288 287 285 283 278 276 275 274 274 272 268 269 266 264 263 264 269 276
302 304 307 307 309 310 313 315 314 314 313 316 315 314 315 314 311 308 306 301 297 294 291 290 291 292 290 290 288 285 283 281 279 271 270 269 271 269 265 267 264 267 265 274 267 260 259
303 307 309 309 310 310 312 314 314 315 315 314 315 317 317 314 311 309 306 303 301 300 297 295 296 293 290 287 283 277 278 276 263 265 254 260 262 265 256 255 257 256 258 255 253 255 256
306 309 309 310 310 312 313 314 315 316 315 314 314 316 314 311 309 308 305 304 302 301 301 300 296 290 286 283 277 274 270 265 258 258 259 260 267 261 250 249 252 253 252 251 253 252 253
305 306 309 312 314 314 315 315 314 314 313 314 314 313 313 312 309 307 307 307 308 307 302 298 297 298 295 292 286 281 276 270 266 260 251 259 258 267 252 248 245 246 252 254 246 250 253
303 308 310 311 312 314 313 313 313 312 313 314 312 313 311 310 309 309 311 313 310 306 303 301 300 301 293 290 290 287 283 268 262 253 256 262 256 260 247 241 245 237 249 245 247 256 260
303 308 310 311 312 314 315 314 313 313 314 314 313 311 310 311 313 316 317 313 311 312 303 298 295 300 301 297 291 291 295 295 277 259 260 269 268 262 254 240 239 244 249 253 255 242 243
304 307 309 311 314 315 315 313 314 313 313 313 312 314 317 318 320 321 319 320 322 320 312 293 297 295 303 296 293 292 297 304 300 282 262 267 268 267 262 258 245 249 246 229 231 242 246
305 307 308 311 314 314 312 312 313 313 314 314 316 320 323 325 323 326 327 329 331 330 322 298 293 301 292 295 295 303 309 310 303 291 288 267 261 260 256 260 269 265 273 263 244 233 246
307 308 311 312 312 311 311 312 314 315 316 319 322 323 326 327 327 330 334 338 339 334 327 302 305 290 295 304 306 303 298 298 307 304 287 284 283 244 244 265 270 269 266 262 254 236 247
308 310 310 311 309 311 313 315 317 319 321 323 324 325 326 328 329 330 335 337 338 327 322 310 311 315 308 307 310 321 303 308 306 313 297 279 265 255 263 269 274 280 278 269 263 251 251
309 309 309 309 312 315 316 319 321 323 324 325 324 323 327 329 326 325 328 330 338 332 311 314 313 311 314 312 315 310 311 300 308 313 315 312 249 265 278 271 268 279 286 284 278 268 261
308 308 309 312 315 316 320 322 322 324 323 324 321 322 324 326 326 326 322 322 330 338 339 314 314 310 311 317 324 324 330 333 339 346 358 317 275 257 264 272 279 283 292 272 284 279 272
308 310 312 314 316 320 322 322 323 323 323 323 320 320 321 323 322 321 319 318 318 324 330 327 320 318 320 318 316 320 314 315 304 318 312 313 300 272 279 284 286 287 292 289 286 276 269
310 313 315 318 320 322 321 322 322 323 320 319 318 319 319 318 319 318 318 316 310 312 317 323 322 313 323 326 321 305 302 303 301 306 313 297 295 287 281 282 280 278 273 282 277 266 266
314 316 318 321 322 321 322 322 322 321 316 316 316 316 314 314 315 314 317 313 314 305 307 313 316 316 314 310 305 292 288 294 295 295 297 295 294 293 292 293 287 281 278 278 278 274 265
Height
5813 5811 5809 5807 5805 5803 5800 5797 5794 5791 5788 5785 5782 5779 5777 5774 5772 5770 5767 5765 5763 5760 5757 5754 5752 5749 5748 5748 5748 5741 5740 5739 5739 5737 5736 5734 5733 5732 5730 5730 5729 5727 5734 5729 5731 5729 5728
5812 5809 5807 5805 5803 5801 5798 5796 5793 5790 5787 5784 5780 5777 5773 5770 5767 5764 5760 5758 5757 5754 5751 5748 5745 5743 5742 5743 5738 5737 5733 5731 5730 5729 5728 5726 5725 5722 5720 5722 5718 5720 5721 5722 5721 5723 5720
5810 5808 5807 5804 5802 5799 5796 5794 5790 5787 5783 5779 5776 5772 5768 5764 5762 5758 5754 5751 5750 5747 5745 5741 5738 5736 5736 5735 5730 5728 5727 5724 5722 5720 5719 5717 5715 5713 5712 5711 5711 5711 5707 5710 5713 5715 5710
5810 5807 5805 5803 5801 5798 5795 5792 5788 5784 5780 5776 5771 5767 5763 5759 5755 5752 5747 5744 5741 5739 5736 5734 5730 5728 5728 5727 5723 5720 5718 5716 5713 5711 5709 5707 5706 5703 5702 5700 5700 5701 5697 5700 5706 5701 5702
5809 5806 5804 5802 5799 5796 5792 5788 5784 5779 5775 5770 5766 5761 5756 5752 5748 5744 5740 5735 5732 5730 5727 5724 5721 5719 5718 5718 5716 5712 5709 5707 5704 5701 5700 5698 5696 5694 5691 5689 5690 5689 5690 5688 5686 5688 5687
5808 5805 5803 5800 5797 5794 5790 5785 5780 5775 5770 5765 5760 5755 5749 5745 5741 5737 5733 5728 5724 5722 5718 5715 5712 5711 5707 5705 5705 5702 5699 5696 5693 5690 5689 5688 5685 5682 5679 5681 5681 5679 5674 5675 5674 5675 5675
5806 5803 5800 5797 5794 5790 5786 5781 5776 5771 5765 5759 5753 5749 5743 5737 5732 5729 5727 5722 5718 5715 5711 5707 5703 5701 5695 5695 5693 5691 5687 5683 5680 5678 5676 5674 5672 5671 5670 5669 5667 5665 5663 5662 5663 5663 5659
5803 5799 5796 5793 5789 5785 5781 5777 5771 5765 5759 5753 5747 5741 5736 5730 5725 5720 5716 5712 5708 5705 5706 5700 5695 5689 5687 5683 5682 5679 5676 5673 5669 5667 5663 5661 5661 5659 5656 5654 5653 5651 5651 5652 5652 5652 5646
5799 5796 5792 5788 5784 5780 5775 5770 5764 5759 5753 5747 5740 5734 5728 5721 5716 5711 5707 5703 5698 5694 5691 5692 5686 5683 5679 5675 5670 5666 5663 5659 5658 5654 5650 5648 5650 5646 5644 5642 5640 5641 5639 5639 5640 5639 5638
5795 5791 5787 5782 5778 5774 5769 5764 5759 5753 5747 5740 5733 5727 5721 5715 5709 5701 5697 5692 5687 5682 5679 5677 5675 5671 5667 5663 5660 5654 5650 5648 5645 5643 5638 5637 5639 5635 5629 5630 5629 5627 5629 5624 5625 5624 5624
5790 5786 5781 5777 5772 5767 5762 5757 5752 5745 5740 5733 5726 5719 5712 5706 5702 5695 5689 5682 5677 5672 5667 5663 5659 5652 5649 5647 5644 5640 5635 5631 5628 5625 5622 5624 5620 5619 5619 5620 5613 5614 5614 5613 5611 5609 5609
5784 5779 5775 5770 5765 5760 5755 5749 5743 5738 5732 5725 5718 5711 5705 5699 5692 5687 5681 5674 5667 5661 5651 5648 5643 5636 5631 5625 5619 5616 5613 5609 5607 5603 5599 5603 5602 5600 5600 5599 5598 5596 5597 5597 5595 5594 5587
5777 5772 5767 5762 5757 5753 5747 5741 5735 5729 5723 5717 5708 5701 5694 5688 5681 5674 5667 5661 5655 5645 5636 5632 5624 5618 5610 5604 5599 5595 5592 5589 5588 5581 5581 5581 5579 5581 5580 5580 5580 5580 5582 5577 5575 5569 5576
5769 5764 5759 5754 5749 5744 5738 5732 5726 5719 5713 5707 5699 5689 5683 5675 5668 5661 5653 5644 5634 5627 5618 5606 5603 5599 5588 5583 5576 5568 5559 5561 5562 5559 5553 5549 5553 5563 5563 5561 5561 5561 5561 5561 5555 5556 5566
5761 5756 5751 5746 5740 5735 5728 5721 5714 5708 5701 5694 5685 5677 5669 5660 5652 5643 5634 5625 5613 5602 5596 5586 5578 5569 5568 5558 5542 5541 5535 5535 5532 5530 5525 5521 5526 5538 5534 5536 5539 5548 5537 5555 5542 5544 5542
5752 5747 5742 5736 5730 5723 5716 5709 5702 5695 5687 5679 5670 5661 5652 5641 5629 5620 5611 5602 5586 5572 5563 5554 5545 5540 5533 5529 5519 5510 5509 5509 5500 5503 5501 5500 5497 5514 5515 5510 5516 5520 5526 5523 5522 5521 5523
5744 5739 5733 5726 5719 5711 5704 5696 5689 5681 5672 5664 5654 5645 5634 5623 5610 5597 5586 5575 5563 5548 5532 5522 5515 5501 5498 5494 5491 5489 5486 5489 5483 5488 5490 5487 5484 5491 5497 5495 5500 5503 5503 5505 5506 5506 5508
5735 5729 5723 5715 5707 5699 5692 5684 5675 5667 5658 5647 5638 5626 5611 5601 5589 5574 5561 5544 5531 5517 5506 5495 5484 5479 5475 5472 5471 5470 5469 5469 5470 5470 5475 5470 5467 5470 5475 5481 5484 5485 5485 5489 5491 5493 5493
5726 5719 5712 5704 5696 5687 5678 5668 5659 5650 5640 5631 5618 5606 5592 5577 5564 5551 5535 5521 5507 5494 5484 5477 5472 5469 5467 5462 5458 5459 5458 5459 5454 5458 5457 5458 5455 5452 5462 5470 5469 5475 5475 5475 5477 5479 5478
5716 5709 5701 5692 5684 5674 5664 5655 5644 5633 5622 5611 5599 5585 5570 5557 5540 5523 5511 5503 5493 5486 5471 5466 5463 5460 5457 5455 5456 5449 5449 5449 5447 5446 5442 5442 5442 5446 5447 5450 5453 5454 5455 5457 5460 5463 5464
5705 5698 5689 5680 5671 5662 5651 5640 5628 5616 5604 5594 5580 5563 5541 5530 5524 5510 5498 5483 5478 5473 5466 5459 5456 5454 5451 5447 5446 5445 5441 5439 5439 5436 5433 5429 5431 5434 5437 5439 5441 5441 5445 5445 5446 5451 5453
5694 5686 5678 5667 5657 5646 5636 5622 5609 5601 5587 5574 5560 5545 5532 5514 5504 5498 5487 5480 5468 5464 5454 5454 5450 5448 5445 5442 5438 5435 5432 5433 5426 5426 5423 5421 5421 5422 5426 5428 5428 5429 5431 5433 5435 5441 5446
5684 5675 5665 5653 5643 5632 5620 5609 5597 5583 5569 5552 5535 5528 5517 5508 5497 5489 5481 5471 5463 5456 5453 5448 5445 5443 5440 5436 5433 5429 5423 5423 5418 5414 5413 5412 5414 5415 5417 5420 5419 5421 5421 5421 5425 5429 5433
5673 5663 5651 5641 5630 5618 5607 5593 5580 5565 5548 5533 5522 5514 5508 5500 5489 5481 5476 5469 5461 5455 5449 5447 5441 5437 5434 5430 5427 5421 5417 5416 5413 5408 5406 5405 5408 5410 5413 5413 5414 5414 5415 5416 5416 5419 5420
5660 5650 5640 5629 5617 5606 5593 5577 5563 5547 5534 5522 5511 5503 5498 5493 5484 5479 5472 5464 5459 5451 5445 5440 5437 5431 5426 5423 5418 5415 5414 5412 5409 5404 5403 5402 5403 5406 5406 5407 5408 5410 5408 5407 5407 5410 5410
5649 5639 5628 5617 5606 5592 5577 5562 5547 5534 5523 5515 5504 5495 5490 5485 5478 5468 5463 5457 5452 5447 5443 5437 5432 5426 5422 5418 5415 5411 5409 5408 5406 5403 5402 5401 5401 5403 5402 5402 5403 5403 5402 5401 5400 5401 5401
5638 5628 5616 5603 5590 5577 5562 5548 5535 5524 5514 5506 5496 5488 5481 5476 5472 5463 5456 5451 5446 5441 5436 5432 5428 5424 5419 5415 5412 5410 5408 5407 5404 5403 5401 5401 5400 5399 5398 5398 5397 5396 5395 5394 5394 5398 5395
5627 5615 5603 5591 5577 5563 5549 5536 5525 5514 5504 5498 5491 5481 5472 5466 5463 5455 5449 5444 5439 5434 5430 5427 5423 5419 5416 5412 5410 5407 5405 5404 5401 5399 5398 5397 5396 5395 5394 5392 5391 5390 5388 5387 5385 5384 5384
5615 5603 5591 5577 5563 5549 5536 5524 5515 5506 5495 5488 5482 5475 5466 5457 5452 5448 5443 5437 5433 5428 5425 5421 5417 5413 5410 5407 5406 5404 5401 5399 5396 5393 5392 5391 5390 5388 5387 5384 5382 5381 5379 5377 5375 5374 5374